Location: Gunung Kajang
(2.4167°N, 113.7167°E)
Time: 02:06:12
(UTC+00:00)

ARIANE 5 DEB (SYLDA) - Visible Passes

Search period start: 07 October 2022 00:00
Search period end: 17 October 2022 00:00
Orbit: 265 x 10549 km, 6.8° (Epoch: 06 October)

Date Brightness Start Highest point End Pass type
(mag) Time Alt. Az. Time Alt. Az. Time Alt. Az.
07 Oct 8.1 10:26:24 10° W 11:42:32 81° S 12:26:19 40° E visible
07 Oct 8.3 15:02:52 10° W 15:58:20 47° W 15:58:20 47° W visible
07 Oct 4.2 20:11:56 51° NE 20:11:56 51° NE 20:14:46 10° ENE visible
08 Oct 8.0 11:18:12 10° W 12:45:51 84° S 13:10:09 58° E visible
08 Oct 8.6 16:08:55 10° W 16:42:07 31° W 16:42:07 31° W visible
08 Oct 3.4 20:55:50 32° WNW 20:57:57 53° N 21:00:51 10° ENE visible
09 Oct 7.9 12:11:07 10° W 13:44:55 87° S 13:53:25 77° E visible
09 Oct 8.9 17:13:23 10° W 17:25:18 18° W 17:25:18 18° W visible
09 Oct 2.8 21:39:12 10° WNW 21:44:06 50° N 21:46:23 10° ENE visible
10 Oct 8.6 08:54:52 10° WSW 09:39:44 77° S 11:04:22 14° E visible
10 Oct 8.0 13:05:41 10° W 14:36:07 83° W 14:36:07 83° W visible
10 Oct6.818:50:06ENE18:50:06ENE18:07:55Wvisible
11 Oct 8.4 09:42:15 10° WSW 10:40:37 80° S 11:46:32 27° E visible
11 Oct 8.2 14:02:32 10° W 15:18:13 65° W 15:18:13 65° W visible
11 Oct 5.5 19:32:20 31° ENE 19:32:20 31° ENE 19:34:22 10° ENE visible
12 Oct 8.2 10:29:51 10° W 11:42:11 83° S 12:28:07 41° E visible
12 Oct 8.4 15:02:01 10° W 15:59:45 48° W 15:59:45 48° W visible
12 Oct 4.1 20:13:59 63° NNW 20:14:09 63° N 20:18:09 10° E visible
13 Oct 8.1 11:17:53 10° W 12:41:56 86° S 13:09:08 57° E visible
13 Oct 8.7 16:03:23 10° W 16:40:41 33° W 16:40:41 33° W visible
13 Oct 3.5 20:55:04 30° WNW 20:58:10 62° N 21:01:19 10° E visible
14 Oct 8.0 12:06:40 10° W 13:38:15 90° S 13:49:34 74° E visible
14 Oct 7.5 17:04:18 10° W 18:04:03 - E 17:21:03 20° W visible
14 Oct 2.8 21:35:33 11° W 21:41:23 65° N 21:43:54 10° E visible
15 Oct 8.7 08:50:05 10° WSW 09:29:30 78° S 10:58:05 12° E visible
15 Oct 8.1 12:56:35 10° W 14:29:25 86° NW 14:29:25 86° NW visible
15 Oct 6.6 18:44:03 16° E 18:44:03 16° E 18:44:52 10° E visible
16 Oct 8.5 09:33:59 10° WSW 10:24:43 81° S 11:37:25 24° E visible
16 Oct 8.2 13:48:09 10° W 15:08:42 70° W 15:08:42 70° W visible
16 Oct 5.4 19:23:28 42° ENE 19:23:28 42° ENE 19:26:26 10° E visible
